User: anonymous   Login
Location: ?astrovice
(49.6513°N, 14.9287°E)
Time: 04:24:22
(UTC+00:00)
Language:

XW-2A - Orbit

View from above orbital plane
View from above orbital plane
View from above satellite
View from above satellite

Ground track
Ground track

The orbit data is extracted from the following two-line orbital elements,

1 40903U 15049E   21289.81338760  .00007859  00000-0  16020-3 0  9994
2 40903  97.2220 343.9104 0010061 294.6835 176.8099 15.46449074341540
Epoch (UTC): 16 October 2021 19:31:16
Eccentricity: 0.0010061
inclination: 97.2220°
perigee height: 420 km
apogee height: 434 km
right ascension of ascending node: 343.9104°
argument of perigee: 294.6835°
revolutions per day: 15.46449074
mean anomaly at epoch: 176.8099°
orbit number at epoch: 34154

The dashed part of the orbit path shows where the satellite is in the earth's shadow,  

DLR